Station OOUH1 - 1612340 - Honolulu, HI Image indicating link to RSS feed of recent meteorological observations for station OOUH1


Conditions at OOUH1 as of
(9:00 pm HAST on 06/22/2024)
0700 GMT on 06/23/2024:
     

Click on the graph icon in the table below to see a time series plot of the last five days of that observation.

5-day plot - Wind Direction Wind Direction (WDIR):ENE ( 60 deg true )
5-day plot - Wind Speed Wind Speed (WSPD): 4.1 kts
5-day plot - Wind Gust Wind Gust (GST): 11.1 kts
5-day plot - Atmospheric Pressure Atmospheric Pressure (PRES):30.07 in
5-day plot - Pressure Tendency Pressure Tendency (PTDY):+0.04 in ( Rising )
5-day plot - Air Temperature Air Temperature (ATMP): 76.3 °F
5-day plot - Water Temperature Water Temperature (WTMP): 79.3 °F
5-day plot - Wind Speed at 10 Meters Wind Speed at 10 meters (WSPD10M): 3.9 kts
5-day plot - Wind Speed at 20 Meters Wind Speed at 20 meters (WSPD20M): 3.9 kts
5-day plot -  Wind Speed, Wind Gust and Atmospheric Pressure Combined plot of Wind Speed, Gust, and Air Pressure
NOS Water Level Observation Network Water Level
Previous observations
TIME
(HAST)
5-day plot - Wind Direction
WDIR
 
5-day plot - Wind Speed
WSPD
kts
5-day plot - Wind Gust
GST
kts
5-day plot - Wave Height
WVHT
ft
5-day plot - Dominant Wave Period
DPD
sec
5-day plot - Average Wave Period
APD
sec
5-day plot - Mean Wave Direction
MWD
 
5-day plot - Atmospheric Pressure
PRES
in
5-day plot - Pressure Tendency
PTDY
in
5-day plot - Air Temperature
ATMP
°F
5-day plot - Water Temperature
WTMP
°F
5-day plot - Dew Point
DEWP
°F
5-day plot - Salinity
SAL
psu
5-day plot - Visibility
VIS
nmi
5-day plot - Tide (above MLLW)
TIDE
ft
2024-06-22 08:54 pm E 5.1 8.0----30.07- 76.5 79.3----
2024-06-22 08:48 pm NE 5.1 8.0----30.06- 76.3 79.3----
2024-06-22 08:42 pm E 2.9 7.0----30.06- 76.1 79.3----
2024-06-22 08:36 pmENE 1.9 8.9----30.06- 76.1 79.3----
2024-06-22 08:30 pmENE 4.1 7.0----30.06- 75.7 79.3----
2024-06-22 08:24 pm N 1.9 5.1----30.06- 75.4 79.3----
2024-06-22 08:18 pmESE 2.9 7.0----30.06- 75.2 79.3----
2024-06-22 08:12 pm E 2.9 7.0----30.06- 75.0 79.3----
2024-06-22 08:06 pm E 1.9 5.1----30.05- 75.2 79.3----
2024-06-22 08:00 pm--------- 75.4 79.3----
2024-06-22 07:54 pm--------- 75.0 79.3----
2024-06-22 07:48 pm NE 4.1 6.0----30.05- 74.3 79.3----
2024-06-22 07:42 pm E 2.9 6.0----30.05- 74.5 79.3----
2024-06-22 07:36 pm NE 1.9 7.0----30.05- 74.7 79.3----
2024-06-22 07:30 pm-------30.05-- 79.3----
2024-06-22 07:24 pm-------30.04-- 79.3----
2024-06-22 07:18 pmNNE 6.0 8.9----30.04- 75.9 79.3----
2024-06-22 07:12 pmNNE 2.9 6.0----30.04- 74.8 79.3----
2024-06-22 07:06 pmENE 2.9 7.0----30.04- 74.3 79.3----
2024-06-22 07:00 pmENE 1.9 6.0----30.04+0.02 74.8 79.5----
2024-06-22 06:54 pmENE 4.1 6.0----30.04- 75.2 79.3----
2024-06-22 06:48 pmESE 5.1 8.0----30.04- 75.0 79.3----
2024-06-22 06:42 pmESE 5.1 8.0----30.03- 75.4 79.5----
2024-06-22 06:36 pmENE 2.9 8.0----30.03- 75.4 79.5----
2024-06-22 06:30 pm E 4.1 8.9----30.03- 75.7 79.3----
2024-06-22 06:24 pm E 4.1 8.9----30.03- 76.1 79.3----
2024-06-22 06:18 pm E 4.1 11.1----30.03-- 79.3----
2024-06-22 06:12 pm E 4.1 8.0----30.02-- 79.3----
2024-06-22 06:06 pmESE 4.1 6.0----30.02-- 79.3----
2024-06-22 06:00 pmENE 6.0 13.0----30.02+0.00 78.3 79.3----
2024-06-22 05:54 pmESE 5.1 11.1----30.02- 78.1 79.3----
2024-06-22 05:48 pmENE 5.1 11.1----30.02- 77.2 79.3----
2024-06-22 05:42 pmESE 7.0 13.0----30.02- 77.5 79.3----
2024-06-22 05:36 pmENE 7.0 8.9----30.02- 77.7 79.3----
2024-06-22 05:30 pmESE 4.1 13.0----30.01- 78.6 79.3----
2024-06-22 05:24 pm E 5.1 9.9----30.02- 79.0 79.3----
2024-06-22 05:18 pm E 6.0 12.0----30.01- 79.0 79.3----
2024-06-22 05:12 pmESE 5.1 12.0----30.01- 79.9 79.3----
2024-06-22 05:06 pmENE 6.0 14.0----30.01- 80.6 79.3----
2024-06-22 05:00 pm-------30.01-0.03- 79.3----
2024-06-22 04:54 pm-------30.01-- 79.3----
2024-06-22 04:48 pm-------30.01-- 79.3----
2024-06-22 04:42 pm-------30.01-- 79.2----
2024-06-22 04:36 pm-------30.01-- 79.2----
2024-06-22 04:30 pm E 7.0 9.9----30.01- 79.7 79.2----
2024-06-22 04:24 pm E 7.0 13.0----30.01- 79.7 79.2----
2024-06-22 04:18 pm E 5.1 12.0----30.01- 80.1 79.2----
2024-06-22 04:12 pm E 7.0 12.0----30.01- 80.4 79.2----
2024-06-22 04:06 pmENE 6.0 15.0----30.01- 81.0 79.2----
2024-06-22 04:00 pmESE 6.0 14.0----30.01-0.04- 79.2----
2024-06-22 03:54 pmENE 7.0 13.0----30.02-- 79.2----
2024-06-22 03:48 pmENE 5.1 8.9----30.02- 81.3 79.2----
2024-06-22 03:42 pmENE 5.1 12.0----30.02- 81.0 79.2----
2024-06-22 03:36 pmESE 7.0 14.0----30.02- 80.4 79.2----
2024-06-22 03:30 pm E 8.0 15.9----30.02-------
2024-06-22 03:24 pmESE 5.1 11.1----30.02-------
2024-06-22 03:18 pm E 8.9 14.0----30.02- 80.6 79.2----
2024-06-22 03:12 pm E 4.1 12.0----30.02- 81.0 79.2----
2024-06-22 03:06 pm E 6.0 12.0----30.03- 81.5 79.2----
2024-06-22 03:00 pmENE 6.0 11.1----30.03-0.02 80.8 79.0----
2024-06-22 02:54 pm E 5.1 11.1----30.03- 80.6 79.0----
2024-06-22 02:48 pm E 4.1 9.9----30.03- 81.3 79.0----
2024-06-22 02:42 pmESE 6.0 12.0----30.03- 81.0 79.0----
2024-06-22 02:36 pmESE 6.0 8.9----30.03- 80.2 79.0----
2024-06-22 02:30 pmESE 8.9 15.0----30.03- 80.1 79.0----
2024-06-22 02:24 pmESE 8.0 13.0----30.04- 79.9 79.0----
2024-06-22 02:18 pmESE 7.0 13.0----30.04- 80.2 79.0----
2024-06-22 02:12 pm E 8.9 15.9----30.04- 79.3 79.0----
2024-06-22 02:06 pm E 7.0 15.0----30.04- 79.7 79.0----
2024-06-22 02:00 pmESE 9.9 15.9----30.04-0.02 79.5 79.0----
2024-06-22 01:54 pmESE 5.1 12.0----30.04- 79.7 79.0----
2024-06-22 01:48 pmESE 7.0 8.9------- 79.0----
2024-06-22 01:42 pm NE 7.0 11.1------- 79.0----
2024-06-22 01:36 pm E 6.0 8.9------- 79.0----
2024-06-22 01:30 pmESE 2.9 13.0----30.04- 79.9 79.0----
2024-06-22 01:24 pm E 5.1 15.9----30.04- 79.9 79.0----
2024-06-22 01:18 pm E 5.1 14.0----30.05- 79.5 79.0----
2024-06-22 01:12 pm E 5.1 9.9----30.04- 80.2 79.0----
2024-06-22 01:06 pmESE 6.0 17.1----30.05- 79.5 79.0----
2024-06-22 01:00 pmENE 7.0 17.1----30.05-0.02- 79.0----
2024-06-22 12:54 pm E 6.0 12.0----30.05-- 79.0----
2024-06-22 12:48 pmENE 4.1 12.0----30.05- 79.9 78.8----
2024-06-22 12:42 pm E 6.0 12.0----30.05- 79.9 78.8----
2024-06-22 12:36 pm NE 7.0 14.0----30.05- 80.2 78.8----
2024-06-22 12:30 pm E 5.1 8.9----30.05- 81.5 78.8----
2024-06-22 12:24 pmESE 7.0 13.0----30.05- 80.6 78.8----
2024-06-22 12:18 pm E 6.0 11.1----30.05- 81.5 78.8----
2024-06-22 12:12 pm E 6.0 15.0----30.05- 81.0 78.8----
2024-06-22 12:06 pm E 6.0 13.0----30.05- 81.1 78.8----
2024-06-22 12:00 pm E 7.0 9.9----30.05-0.01 81.1 78.8----
2024-06-22 11:54 amENE 8.0 11.1----30.05- 80.4 78.8----
2024-06-22 11:48 amESE 6.0 14.0----30.05- 80.6 78.8----
2024-06-22 11:42 amESE 7.0 14.0----30.06- 80.8 78.8----
2024-06-22 11:36 am E 6.0 13.0----30.05- 81.3 78.8----
2024-06-22 11:30 amENE 6.0 18.1----30.05-- 78.8----
2024-06-22 11:24 am N 1.9 12.0----30.06-- 78.8----
2024-06-22 11:18 am E 5.1 14.0----30.06- 80.6 78.8----
2024-06-22 11:12 amESE 6.0 13.0----30.06- 80.6 78.8----
2024-06-22 11:06 am NE 8.0 11.1----30.06- 80.4 78.8----
2024-06-22 11:00 am E 6.0 13.0----30.06+0.01 80.6 78.8----
2024-06-22 10:54 amNNE 8.9 15.9----30.06- 80.1 78.8----
2024-06-22 10:48 am NE 9.9 17.1----30.07-- 78.8----
2024-06-22 10:42 amNNE 8.9 17.1----30.07-- 78.8----
2024-06-22 10:36 am NE 5.1 15.0----30.07-- 78.8----
2024-06-22 10:30 am--------- 80.4 78.8----
2024-06-22 10:24 am--------- 80.4 78.8----
2024-06-22 10:18 amENE 8.0 12.0----30.07-- 78.8----
2024-06-22 10:12 amESE 5.1 15.0----30.07-- 78.8----
2024-06-22 10:06 am E 8.0 15.9----30.07-- 78.8----
2024-06-22 10:00 am NE 8.9 19.0----30.07+0.03 80.4 78.8----
2024-06-22 09:54 am E 5.1 12.0----30.07- 80.4 78.8----
2024-06-22 09:48 am E 5.1 9.9----30.07- 79.9 78.8----
2024-06-22 09:42 amESE 5.1 11.1----30.07- 79.7 78.8----
2024-06-22 09:36 am E 5.1 12.0----30.06- 79.9 78.8----
2024-06-22 09:30 am NE 6.0 8.9----30.07- 79.9 78.8----
2024-06-22 09:24 amESE 7.0 12.0----30.06- 79.9 78.8----
2024-06-22 09:18 am E 4.1 8.9----30.06- 79.5 78.8----
2024-06-22 09:12 amENE 6.0 13.0----30.06- 79.2 78.8----
2024-06-22 09:06 amESE 8.9 15.9----30.06- 78.8 78.6----
2024-06-22 09:00 am E 5.1 11.1----30.06+0.03 79.2 78.8----
2024-06-22 08:54 am E 5.1 13.0----30.06- 79.3 78.6----
2024-06-22 08:48 amESE 6.0 14.0----30.06- 79.0 78.6----
2024-06-22 08:42 am E 7.0 14.0----30.06- 79.2 78.6----
2024-06-22 08:36 am E 4.1 12.0----30.06- 79.3 78.6----
2024-06-22 08:30 amENE 6.0 15.0----30.06- 79.2 78.6----
2024-06-22 08:24 am NE 7.0 15.9----30.06- 78.8 78.6----
2024-06-22 08:18 amENE 4.1 9.9----30.06- 78.8-----
2024-06-22 08:12 am E 2.9 7.0----30.06- 79.0-----
2024-06-22 08:06 am E 4.1 6.0----30.06- 78.4-----
2024-06-22 08:00 amNNE 4.1 8.9----30.05+0.03 78.4 78.6----
2024-06-22 07:54 amNNE 5.1 13.0----30.05- 78.3 78.6----
2024-06-22 07:48 amNNE 5.1 8.0----30.05- 77.9 78.6----
2024-06-22 07:42 am NE 4.1 7.0----30.05- 77.9 78.6----
2024-06-22 07:36 amENE 6.0 8.9----30.05- 77.7 78.6----
2024-06-22 07:30 am NE 5.1 11.1----30.05- 77.2 78.6----
2024-06-22 07:24 am NE 7.0 15.9----30.05- 77.0 78.6----
2024-06-22 07:18 amENE 5.1 13.0----30.04- 76.3 78.6----
2024-06-22 07:12 am NE 8.0 12.0----30.04- 76.3 78.6----
2024-06-22 07:06 am NE 7.0 15.0----30.04- 76.1 78.6----
2024-06-22 07:00 amENE 6.0 15.9----30.04+0.02 76.1 78.6----
2024-06-22 06:54 amENE 6.0 9.9----30.04- 76.5 78.6----
2024-06-22 06:48 amESE 1.0 6.0----30.04- 76.8 78.6----
2024-06-22 06:42 amESE 2.9 8.0----30.04- 76.8 78.6----
2024-06-22 06:36 am E 2.9 7.0----30.03- 76.6 78.6----
2024-06-22 06:30 am NE 2.9 6.0----30.03- 76.5 78.6----
2024-06-22 06:24 am NE 4.1 8.0----30.03- 76.3 78.8----
2024-06-22 06:18 amENE 4.1 8.0----30.03- 76.3 78.8----
2024-06-22 06:12 am NE 2.9 7.0----30.03- 76.5 78.8----
2024-06-22 06:06 am N 2.9 5.1----30.03- 76.3 78.8----
2024-06-22 06:00 amENE 4.1 8.0----30.03+0.01 76.6 78.8----
2024-06-22 05:54 am N 1.9 13.0----30.03- 76.6 78.8----
2024-06-22 05:48 am NE 6.0 12.0----30.03-- 78.8----
2024-06-22 05:42 am NE 6.0 8.9----30.03-- 78.8----
2024-06-22 05:36 am NE 5.1 8.9----30.03-- 78.8----
2024-06-22 05:30 amNNE 2.9 7.0----30.03- 75.7 78.8----
2024-06-22 05:24 amENE 6.0 9.9----30.03- 75.2 78.8----
2024-06-22 05:18 amENE 5.1 9.9----30.03- 75.6 78.8----
2024-06-22 05:12 am NE 6.0 14.0----30.03- 75.9 78.8----
2024-06-22 05:06 am NE 6.0 11.1----30.03- 76.1 78.8----
2024-06-22 05:00 amENE 4.1 9.9----30.03+0.00 76.3 78.8----
2024-06-22 04:54 amENE 7.0 9.9----30.03- 76.1 78.8----
2024-06-22 04:48 amENE 7.0 12.0----30.03- 76.1 78.8----
2024-06-22 04:42 amENE 5.1 12.0----30.02- 75.9 78.8----
2024-06-22 04:36 amENE 7.0 12.0----30.02- 75.9 78.8----
2024-06-22 04:30 am NE 6.0 11.1----30.02- 75.7 78.8----
2024-06-22 04:24 am NE 4.1 7.0----30.02- 75.4 78.8----
2024-06-22 04:18 am--------- 75.6 78.8----
2024-06-22 04:12 am--------- 75.7 78.8----
2024-06-22 04:06 am--------- 75.9 78.8----
2024-06-22 04:00 am N 1.9 6.0----30.02-0.03- 78.8----
2024-06-22 03:54 amENE 4.1 8.9----30.02-- 78.8----
2024-06-22 03:48 amENE 5.1 8.0----30.02- 75.7 78.8----
2024-06-22 03:42 am NE 5.1 7.0----30.02- 75.6 78.8----
2024-06-22 03:36 am NE 2.9 6.0----30.02- 75.4 78.8----
2024-06-22 03:30 am E 1.9 6.0----30.02- 75.6 78.8----
2024-06-22 03:24 am E 1.9 5.1----30.02- 75.7 78.8----
2024-06-22 03:18 amESE 2.9 5.1----30.02- 75.7 78.8----
2024-06-22 03:12 am NE 1.9 4.1----30.02- 75.4 78.8----
2024-06-22 03:06 amESE 2.9 5.1----30.02- 75.4 78.8----
2024-06-22 03:00 am E 1.9 6.0----30.02-0.06 75.4-----
2024-06-22 02:54 amENE 2.9 6.0----30.02- 75.7-----
2024-06-22 02:48 amENE 4.1 7.0----30.02-------
2024-06-22 02:42 am- 0.0 6.0----30.02-------
2024-06-22 02:36 am E 4.1 6.0----30.02-------
2024-06-22 02:30 amENE 5.1 7.0------- 78.8----
2024-06-22 02:24 am NE 2.9 5.1------- 78.8----
2024-06-22 02:18 amSSE 1.9 6.0----30.02- 75.0 79.0----
2024-06-22 02:12 am E 1.9 6.0----30.02- 74.8 79.0----
2024-06-22 02:06 amESE 2.9 7.0----30.03- 75.0 79.0----
2024-06-22 02:00 am-------30.03-0.06- 79.0----
2024-06-22 01:54 am-------30.03-- 79.0----
2024-06-22 01:48 am NE 1.9 2.9----30.04- 75.0 79.0----
2024-06-22 01:42 am- 0.0 5.1----30.04- 74.8 79.0----
2024-06-22 01:36 am NW 2.9 5.1----30.04- 74.8 79.0----
2024-06-22 01:30 am W 1.9 2.9----30.04- 74.5 79.0----
2024-06-22 01:24 amNNE 1.0 5.1----30.04- 74.5 79.0----
2024-06-22 01:18 am SE 1.9 4.1----30.04-- 79.0----
2024-06-22 01:12 am NE 1.9 5.1----30.05-- 79.0----
2024-06-22 01:06 am E 4.1 6.0----30.05-- 79.0----
2024-06-22 01:00 amESE 1.9 6.0----30.05- 75.4 79.0----
2024-06-22 12:54 amENE 1.9 6.0----30.05- 76.1 79.0----
2024-06-22 12:48 am NE 2.9 5.1----30.06- 76.5 79.0----
2024-06-22 12:42 am E 1.9 4.1----30.06- 76.8 79.0----
2024-06-22 12:36 amENE 5.1 8.0----30.06- 76.8 79.0----
2024-06-22 12:30 amENE 1.9 4.1----30.06- 76.5-----
2024-06-22 12:24 amENE 2.9 5.1----30.07- 76.3-----
2024-06-22 12:18 am NE 2.9 4.1----30.07- 76.5 79.0----
2024-06-22 12:12 amNNE 2.9 6.0----30.07- 76.5 79.0----
2024-06-22 12:06 am N 5.1 7.0----30.07- 76.5 79.0----
2024-06-22 12:00 am NE 4.1 5.1----30.07+0.01 76.3 79.0----
2024-06-21 11:54 pm- 0.0 2.9----30.08- 76.3 79.0----
2024-06-21 11:48 pmENE 1.9 4.1----30.08-- 79.0----
2024-06-21 11:42 pm NE 2.9 6.0----30.08-- 79.0----
2024-06-21 11:36 pmENE 1.9 5.1----30.08-- 79.0----
2024-06-21 11:30 pm E 4.1 8.0----30.08- 76.8 79.0----
2024-06-21 11:24 pm NE 1.9 11.1----30.08- 76.8 79.0----
2024-06-21 11:18 pm NE 4.1 8.0----30.09- 76.8 79.0----
2024-06-21 11:12 pmNNE 5.1 9.9----30.09- 76.1 79.0----
2024-06-21 11:06 pm- 0.0 6.0----30.09- 75.7 79.0----
2024-06-21 11:00 pm NE 2.9 5.1----30.09+0.04 75.9 79.0----
2024-06-21 10:54 pm NE 5.1 7.0----30.09- 76.1 79.0----
2024-06-21 10:48 pm N 1.0 5.1----30.09- 76.6 79.0----
2024-06-21 10:42 pm NE 4.1 12.0----30.09- 76.8 79.0----
2024-06-21 10:36 pmNNE 2.9 6.0----30.08- 76.1 79.2----
2024-06-21 10:30 pmENE 5.1 11.1----30.09-- 79.2----
2024-06-21 10:24 pm NE 5.1 11.1----30.09-- 79.2----
2024-06-21 10:18 pmENE 5.1 8.0----30.08-- 79.2----
2024-06-21 10:12 pmENE 4.1 8.0----30.08-- 79.2----
2024-06-21 10:06 pm NE 5.1 15.0----30.08-- 79.2----
2024-06-21 10:00 pmENE 4.1 9.9------------
2024-06-21 09:54 pmENE 5.1 14.0------------
2024-06-21 09:48 pm E 7.0 12.0----30.08- 76.5 79.2----
2024-06-21 09:42 pmNNE 6.0 9.9----30.08- 76.5 79.2----
2024-06-21 09:36 pm E 5.1 8.9----30.07- 75.9 79.2----
2024-06-21 09:30 pmENE 4.1 9.9----30.07- 76.3 79.2----
2024-06-21 09:24 pmESE 5.1 9.9----30.07- 77.2 79.2----
2024-06-21 09:18 pmENE 2.9 6.0----30.07- 77.2 79.2----
2024-06-21 09:12 pm E 5.1 9.9----30.07- 77.2 79.2----
2024-06-21 09:06 pm E 5.1 9.9----30.07- 77.4 79.2----
2024-06-21 09:00 pm NE 4.1 12.0----30.06+0.04 77.7 79.2----
2024-06-21 08:54 pm N 2.9 6.0----30.06- 77.5 79.2----